Home   Weather   Sukkur   Past weeks

Flag for Pakistan Past Weather in Sukkur, Sindh, Pakistan — Yesterday and Last 2 Weeks

Now
46 °F

Scattered clouds.


Feels Like: 46 °F
Forecast: 52 / 72 °F
Wind: No wind

Location: Sukkur

Current Time: Jan 22, 2017 at 8:57:58 am

Latest Report: Jan 22, 2017 at 8:00 am


Visibility: 1 mi

Pressure: 30.15 "Hg

Humidity: 76%

Dew Point: 39 °F

Location of SukkurLocation

Past Weather in Sukkur — Graph

°F

Sukkur Temperature Yesterday

Maximum temperature yesterday: 73 °F (at 3:00 pm)
Minimum temperature yesterday: 48 °F (at 6:00 am)
Average temperature yesterday: 61 °F

High & Low Weather Summary for the Past Weeks

 TemperatureHumidityPressure
High73 °F (Jan 12, 2:00 pm)100% (Jan 18, 7:00 am)30.33 "Hg (Jan 18, 7:00 am)
Low36 °F (Jan 10, 8:00 am)20% (Jan 7, 4:00 pm)29.83 "Hg (Jan 7, 3:00 pm)
Average56 °F70%30.04 "Hg
* Reported Jan 7 8:00 am — Jan 22 8:00 am, Sukkur, Weather by CustomWeather, © 2017

Note: Actual official high and low records may vary slightly from our data, if they occured in-between our weather recording intervals... More about our weather records

Advertising

Sukkur Weather History for the Previous 24 Hours

Scroll right to see more
 ConditionsComfort  
Time TempWeatherWind HumidityBarometerVisibility
8:00 am
Sun, Jan 22
46 °FScattered clouds.No wind76%30.15 "Hg1 mi
7:00 am48 °FFog.5 mph82%30.09 "Hg1 mi
6:00 am48 °FFog.5 mph87%30.09 "Hg1 mi
5:30 am48 °FFog.5 mph87%30.09 "Hg1 mi
4:00 am52 °FFog.No wind77%30.09 "Hg1 mi
3:00 am52 °FFog.No wind82%30.09 "Hg1 mi
2:00 am54 °FHaze.No wind77%30.09 "Hg1 mi
1:00 am54 °FHaze.No wind77%30.09 "Hg1 mi
12:00 am55 °FHaze.No wind72%30.12 "Hg2 mi
11:00 pm
Sat, Jan 21
57 °FHaze.No wind67%30.12 "Hg2 mi
10:00 pm57 °FHaze.No wind67%30.12 "Hg2 mi
9:00 pm59 °FHaze.No wind59%30.09 "Hg2 mi
8:00 pm61 °FHaze.No wind63%30.09 "Hg2 mi
7:00 pm70 °FHaze.No wind46%30.07 "Hg2 mi
6:00 pm70 °FPassing clouds.No wind46%30.07 "Hg2 mi
5:00 pm73 °FScattered clouds.5 mph33%30.07 "Hg2 mi
4:00 pm73 °FScattered clouds.7 mph29%30.07 "Hg3 mi
3:00 pm73 °FScattered clouds.7 mph29%30.07 "Hg3 mi
2:00 pm72 °FHaze.7 mph36%30.09 "Hg3 mi
1:00 pm72 °FScattered clouds.5 mph36%30.12 "Hg2 mi
12:00 pm70 °FScattered clouds.No wind40%30.12 "Hg2 mi
11:00 am63 °FScattered clouds.No wind64%30.15 "Hg1 mi
10:00 am54 °FScattered clouds.No wind77%30.18 "Hg1 mi
9:00 am50 °FFog.No wind82%30.15 "Hg1 mi
8:00 am48 °FFog.No wind87%30.12 "Hg1 mi
Weather by CustomWeather, © 2017

See weather overviewHow to use our weather pages